Weather History for KAEX - December, 2003

Change the Weather History Date:

Saturday, December 20, 2003

  Actual Average Record
Temperature  
Mean Temperature 42 °F 50 °F  
Max Temperature 57 °F 60 °F 78 °F (1951)
Min Temperature 27 °F 40 °F 18 °F (1901)
Degree Days  
Heating Degree Days 23 15  
Month to date heating degree days 289  
Since 1 July heating degree days 614  
Moisture  
Dew Point 25 °F    
Average Humidity 60    
Maximum Humidity 92    
Minimum Humidity 19    
Precipitation  
Precipitation 0.00 in 0.17 in 3.55 in (1923)
Month to date precipitation 4.45  
Year to date precipitation 54.25  
Snow  
Snow 0.00 in - 0.00 in ()
Month to date snowfall  
Since 1 July snowfall  
Snow Depth -    
Sea Level Pressure  
Sea Level Pressure 30.37 in    
Wind  
Wind Speed 2 mph (ESE)    
Max Wind Speed 8 mph    
Max Gust Speed -    
Visibility 10 miles    
Events      
T = Trace of Precipitation, MM = Missing Value Source: NWS Daily Summary

Daily Weather History Graph

Daily Weather History Graph

Search for Another Location

Airport or City:

Trip Planner

Search our weather history database for the weather conditions in past years. The results will help you decide how hot, cold, wet, or windy it might be!

Date:

Astronomy

Dec. 20, 2003 Rise Set
Actual Time 7:04 AM CST 5:11 PM CST
Civil Twilight 6:37 AM CST 5:37 PM CST
Nautical Twilight 6:07 AM CST 6:08 PM CST
Astronomical Twilight 5:37 AM CST 6:37 PM CST
Moon 3:52 AM CST (12/20) 2:46 PM CST (12/20)
Length of Visible Light 11h 00m
Length of Day
10h 06m
Waning Crescent, 10% of the Moon is Illuminated
Dec 20
Waning Crescent
Dec 23
New
Dec 30
First Quarter
Jan 7
Full
Jan 14
Last Quarter

Hourly Weather History & Observations

Time (CST) Temp. Windchill Dew Point Humidity Pressure Visibility Wind Dir Wind Speed Gust Speed Precip Events Conditions
12:53 AM 34.0 °F - 26.1 °F 73% 30.35 in 10.0 mi Calm Calm - N/A   Clear
1:53 AM 30.9 °F - 27.0 °F 85% 30.35 in 10.0 mi Calm Calm - N/A   Clear
2:53 AM 30.0 °F - 27.0 °F 88% 30.35 in 10.0 mi Calm Calm - N/A   Clear
3:53 AM 30.0 °F - 26.1 °F 85% 30.35 in 10.0 mi Calm Calm - N/A   Clear
4:53 AM 28.0 °F - 26.1 °F 92% 30.37 in 10.0 mi Calm Calm - N/A   Clear
5:53 AM 27.0 °F - 25.0 °F 92% 30.38 in 10.0 mi Calm Calm - N/A   Clear
6:53 AM 28.0 °F - 26.1 °F 92% 30.40 in 10.0 mi Calm Calm - N/A   Clear
7:53 AM 30.9 °F - 28.9 °F 92% 30.42 in 10.0 mi Calm Calm - N/A   Clear
8:53 AM 39.0 °F 36.8 °F 32.0 °F 76% 30.43 in 10.0 mi NNW 3.5 mph - N/A   Clear
9:53 AM 46.0 °F 41.9 °F 28.0 °F 50% 30.44 in 10.0 mi ENE 8.1 mph - N/A   Clear
10:53 AM 51.1 °F - 23.0 °F 33% 30.43 in 10.0 mi SE 6.9 mph - N/A   Clear
11:53 AM 54.0 °F - 23.0 °F 30% 30.40 in 10.0 mi Variable 5.8 mph - N/A   Clear
12:53 PM 55.0 °F - 21.9 °F 28% 30.37 in 10.0 mi SSE 4.6 mph - N/A   Clear
1:53 PM 57.0 °F - 21.0 °F 25% 30.35 in 10.0 mi Calm Calm - N/A   Clear
2:53 PM 57.9 °F - 19.0 °F 22% 30.34 in 10.0 mi Variable 3.5 mph - N/A   Clear
3:53 PM 57.9 °F - 16.0 °F 19% 30.32 in 10.0 mi Calm Calm - N/A   Clear
4:53 PM 55.0 °F - 21.9 °F 28% 30.32 in 10.0 mi SSE 4.6 mph - N/A   Clear
5:53 PM 48.0 °F - 25.0 °F 41% 30.33 in 10.0 mi ESE 3.5 mph - N/A   Clear
6:53 PM 44.1 °F 41.5 °F 27.0 °F 51% 30.33 in 10.0 mi East 4.6 mph - N/A   Clear
7:53 PM 43.0 °F 39.5 °F 27.0 °F 53% 30.34 in 10.0 mi SE 5.8 mph - N/A   Clear
8:53 PM 41.0 °F 39.0 °F 28.0 °F 60% 30.34 in 10.0 mi ESE 3.5 mph - N/A   Clear
9:53 PM 37.9 °F - 28.0 °F 68% 30.35 in 10.0 mi Calm Calm - N/A   Clear
10:53 PM 36.0 °F 33.3 °F 27.0 °F 70% 30.35 in 10.0 mi ESE 3.5 mph - N/A   Clear
11:53 PM 35.1 °F - 28.0 °F 76% 30.35 in 10.0 mi Calm Calm - N/A   Clear